Marshalltown, IA

11:43 AM CST on February 21, 2017 (GMT -0600)
Marshalltown Municipal

Weather History for KMIW - May, 2013

Change the Weather History Date:

Friday, May 17, 2013

  Actual Average Record
Temperature  
Mean Temperature 70 °F 60 °F  
Max Temperature 80 °F 72 °F 89 °F (1998)
Min Temperature 59 °F 49 °F 34 °F (2002)
Degree Days  
Heating Degree Days 0 6  
Month to date heating degree days 179 141  
Since 1 July heating degree days 6931 6926  
Cooling Degree Days 5 2  
Month to date cooling degree days 21 13  
Year to date cooling degree days 25 17  
Growing Degree Days 20 (Base 50)    
Moisture  
Dew Point 61 °F    
Average Humidity 76    
Maximum Humidity 100    
Minimum Humidity 52    
Precipitation  
Precipitation 0.00 in 0.13 in 0.36 in (2004)
Month to date precipitation 3.92 2.25  
Sea Level Pressure  
Sea Level Pressure 29.89 in    
Wind  
Wind Speed 8 mph (SSE)    
Max Wind Speed 17 mph    
Max Gust Speed 22 mph    
Visibility 10 miles    
Events      
T = Trace of Precipitation, MM = Missing Value Source: NWS Daily Summary

Daily Weather History Graph

Daily Weather History Graph

Search for Another Location

Airport or City:

Trip Planner

Search our weather history database for the weather conditions in past years. The results will help you decide how hot, cold, wet, or windy it might be!

Date:

Astronomy

May. 17, 2013 Rise Set
Actual Time 5:48 AM CDT 8:28 PM CDT
Civil Twilight 5:16 AM CDT 9:00 PM CDT
Nautical Twilight 4:36 AM CDT 9:40 PM CDT
Astronomical Twilight 3:50 AM CDT 10:27 PM CDT
Moon 12:24 PM CDT (5/17) 1:18 AM CDT (5/17)
Length of Visible Light 15h 43m
Length of Day
14h 39m
Waxing Crescent, 45% of the Moon is Illuminated
May 17
Waxing Crescent
May 17
First Quarter
May 24
Full
May 31
Last Quarter
Jun 8
New

Hourly Weather History & Observations

Time (CDT) Temp. Dew Point Humidity Pressure Visibility Wind Dir Wind Speed Gust Speed Precip Events Conditions
12:53 AM 68.0 °F 61.0 °F 78% 29.83 in 10.0 mi SSE 5.8 mph - N/A   Clear
1:53 AM 64.9 °F 61.0 °F 87% 29.83 in 10.0 mi South 4.6 mph - N/A   Clear
2:53 AM 64.9 °F 61.0 °F 87% 29.84 in 10.0 mi South 4.6 mph - N/A   Clear
3:53 AM 64.0 °F 60.1 °F 87% 29.86 in 10.0 mi SSW 3.5 mph - N/A   Overcast
4:53 AM 63.0 °F 60.1 °F 90% 29.87 in 10.0 mi South 4.6 mph - N/A   Clear
5:53 AM 62.1 °F 60.1 °F 93% 29.88 in 10.0 mi South 5.8 mph - N/A   Clear
6:53 AM 61.0 °F 60.1 °F 97% 29.90 in 10.0 mi SE 3.5 mph - N/A   Clear
7:53 AM 64.0 °F 62.1 °F 93% 29.91 in 10.0 mi SE 4.6 mph - N/A   Clear
8:53 AM 66.9 °F 62.1 °F 84% 29.93 in 10.0 mi NE 3.5 mph - N/A   Mostly Cloudy
9:27 AM 68.0 °F 62.6 °F 83% 29.94 in 10.0 mi SSE 8.1 mph - N/A   Scattered Clouds
9:53 AM 70.0 °F 64.0 °F 81% 29.93 in 10.0 mi SE 8.1 mph - N/A   Clear
10:53 AM 75.0 °F 64.0 °F 69% 29.91 in 10.0 mi SSE 10.4 mph - N/A   Clear
11:53 AM 77.0 °F 62.1 °F 60% 29.91 in 10.0 mi SSE 16.1 mph - N/A   Mostly Cloudy
12:53 PM 77.0 °F 63.0 °F 62% 29.91 in 10.0 mi South 10.4 mph 21.9 mph N/A   Mostly Cloudy
1:53 PM 78.1 °F 61.0 °F 56% 29.90 in 10.0 mi South 15.0 mph 21.9 mph N/A   Clear
2:53 PM 78.1 °F 61.0 °F 56% 29.89 in 10.0 mi South 13.8 mph 20.7 mph N/A   Scattered Clouds
3:53 PM 78.1 °F 60.1 °F 54% 29.89 in 10.0 mi SSE 13.8 mph - N/A   Clear
4:53 PM 78.1 °F 59.0 °F 52% 29.88 in 10.0 mi SSE 11.5 mph 19.6 mph N/A   Partly Cloudy
5:53 PM 79.0 °F 60.1 °F 52% 29.88 in 10.0 mi SSE 15.0 mph - N/A   Mostly Cloudy
6:53 PM 78.1 °F 60.1 °F 54% 29.88 in 10.0 mi SSE 12.7 mph - N/A   Mostly Cloudy
7:53 PM 75.0 °F 59.0 °F 57% 29.90 in 10.0 mi SSE 6.9 mph - N/A   Clear
8:53 PM 73.0 °F 57.9 °F 59% 29.89 in 10.0 mi SSE 8.1 mph - N/A   Clear
9:53 PM 71.1 °F 59.0 °F 66% 29.89 in 10.0 mi SSE 10.4 mph - N/A   Clear
10:53 PM 69.1 °F 60.1 °F 73% 29.91 in 10.0 mi South 6.9 mph - N/A   Clear
11:53 PM 66.0 °F 59.0 °F 78% 29.94 in 10.0 mi Calm Calm - N/A   Clear